Location: Newark
(34.9500°N, 139.9667°E)
Time: 01:32:51
(UTC+00:00)

deb Explorer IX - Pass Details

Date: 16 December 2019
Orbit: 548 x 1101 km, 38.8° (Epoch: 23 January)

Event Time Altitude Azimuth Distance (km) Brightness Sun altitude
Rises 11:00:51 0° 283° (WNW) 3,586 ? -42.3°
Reaches altitude 10° 11:03:41 10° 273° (W) 2,721 ? -42.8°
Enters shadow 11:07:00 24° 247° (WSW) 1,963 ? -43.5°
